sat.trackr.live / text

‹ back to catalog

STARLINK-36311

NORAD 68525 · 2026-068T

PAYLOAD ACTIVE UNKNOWN

§ Identity

Operator
Country
US
Launch date
2026-03-30
Launch site
AFETR
Launch vehicle
Mass (kg)
RCS (m²)

Purposes: comms

External: N2YO · Heavens-Above · Gunter

§ Orbital elements

Epoch: 2026-05-25T02:59:31.415424Z

Period
93.85 min
Inclination
53.1591°
Eccentricity
0.0001664
Mean motion
15.34405606 rev/d
Perigee alt
461.5 km
Apogee alt
463.8 km
Semi-major
6,840.8 km
B*
4.6463e-4
RAAN
133.0923°
Arg perigee
85.0576°
Mean anomaly
275.0617°
Rev number
866

§ Raw data

STARLINK-363111 68525U 26068T   26145.12466916  .00015357  00000+0  46463-3 0  99972 68525  53.1591 133.0923 0001664  85.0576 275.0617 15.34405606  8663

JSON: /api/v1/satellites/68525 · /tle

For live sub-satellite position, see the globe view (requires WebGL).

§ Visibility from observer

Set your observer location to see the next 7 days of passes ≥ 10°. The values pass through the URL so the page stays shareable.

No JS? Fill the form by hand. The geolocation button needs JavaScript.